Location: El Centro
(32.7920°N, 115.5620°W)
Time: 04:13:12
(UTC-07:00)

Amateur Radio Satellites - All Passes

Search period start: 27 June 2016 03:43
Search period end: 28 June 2016 03:43
Location: El Centro, 32.7920°N, 115.5620°W

Satellite Date Start Highest point End Downlink Frequencies (MHz)
Time Altitude Azimuth
AO-7 27 Jun 03:43:45 03:51:26 39° 100° (E) 03:59:03 29.400- 29.500
KKS-1 27 Jun 03:50:16 03:54:41 89° 248° (WSW) 03:59:08 437.445
AIST 2 27 Jun 03:56:01 03:57:08 11° 107° (ESE) 03:58:15 435.215
GONETS M04 27 Jun 04:04:25 04:06:05 11° 64° (ENE) 04:07:45
STARS 27 Jun 04:27:11 04:31:31 68° 258° (WSW) 04:35:52 437.465
CUBESAT XI-V 27 Jun 04:51:05 04:55:23 37° 73° (ENE) 04:59:42 437.345
Cosmos 2499 27 Jun 05:05:49 05:12:10 22° 70° (ENE) 05:18:14 435.465 / 435.565
MOZHAYETS 4 27 Jun 05:07:10 05:09:42 15° 267° (W) 05:12:15
AIST 1 27 Jun 05:10:41 05:14:34 35° 268° (W) 05:18:26
HORYU 2 27 Jun 05:11:13 05:15:31 44° 100° (E) 05:19:47 437.375
ITAMSAT 1 27 Jun 05:13:05 05:14:37 11° 297° (WNW) 05:16:10 435.822/435.867
AIST 2 27 Jun 05:31:10 05:35:08 47° 301° (WNW) 05:39:08 435.215
PHONESAT 2.4 27 Jun 05:36:18 05:37:48 13° 141° (SE) 05:39:18 2401.200-2431.200
AO-7 27 Jun 05:36:27 05:44:04 41° 295° (WNW) 05:51:40 29.400- 29.500
GONETS M04 27 Jun 05:55:37 06:04:21 74° 83° (E) 06:13:06
CUTE-I 27 Jun 05:59:59 06:03:45 19° 95° (E) 06:07:30 437.470
BRITE-PL 27 Jun 06:29:00 06:33:02 51° 100° (E) 06:37:08 437.365/2234.400
CUBESAT XI-V 27 Jun 06:29:43 06:32:49 17° 266° (W) 06:35:56 437.345
NOAA 15 27 Jun 06:32:25 06:37:36 59° 101° (ESE) 06:42:45 137.62
DOVE 4 27 Jun 06:43:00 06:45:01 13° 94° (E) 06:47:03 437.250
NOAA 18 27 Jun 06:45:09 06:50:39 61° 102° (ESE) 06:56:07 137.9125
HORYU 2 27 Jun 06:49:17 06:51:39 14° 293° (WNW) 06:54:00 437.375
Cosmos 2499 27 Jun 06:57:19 07:05:59 68° 268° (W) 07:14:03 435.465 / 435.565
CUSAT 1 27 Jun 07:03:09 07:10:41 47° 93° (E) 07:17:25 437.405
Cubesat XI-IV 27 Jun 07:03:41 07:09:06 86° 103° (ESE) 07:14:28 437.490
AO-85 27 Jun 07:06:27 07:10:49 62° 60° (ENE) 07:14:48 145.980
STRAND 1 27 Jun 07:09:47 07:14:54 76° 75° (ENE) 07:20:03 437.568
GOMX 1 27 Jun 07:10:32 07:14:44 68° 101° (E) 07:19:08 467.674
PHONESAT 2.4 27 Jun 07:11:02 07:14:05 79° 332° (NNW) 07:17:10 2401.200-2431.200
DANDE 27 Jun 07:11:36 07:18:20 28° 87° (E) 07:24:57 436.750
LilacSat-2 27 Jun 07:13:21 07:17:09 55° 284° (WNW) 07:20:57 437.200
CANX-2 27 Jun 07:34:24 07:36:16 13° 93° (E) 07:38:08 2200.000
CUTE-I 27 Jun 07:38:51 07:43:54 43° 288° (WNW) 07:48:56 437.470
CINEMA 3 27 Jun 07:48:48 07:52:23 22° 96° (E) 07:56:01 145.822/145.860
CUTE 1.7 + AOD 2 27 Jun 07:53:38 07:56:43 19° 95° (E) 07:59:46 437.475
GONETS M04 27 Jun 07:54:42 08:00:10 19° 279° (W) 08:05:40
ISS 27 Jun 07:56:31 07:59:14 25° 129° (SE) 08:01:58 145.825
SEEDS 27 Jun 08:00:51 08:03:27 16° 94° (E) 08:06:03 437.485
NOAA 15 27 Jun 08:14:09 08:16:48 14° 296° (WNW) 08:19:28 137.62
DOVE 4 27 Jun 08:18:41 08:22:48 43° 286° (WNW) 08:27:08 437.250
NOAA 18 27 Jun 08:27:37 08:30:43 15° 296° (WNW) 08:33:50 137.9125
PRISM 27 Jun 08:35:04 08:39:13 85° 254° (WSW) 08:43:24 437.425
HO-68 27 Jun 08:35:05 08:42:14 63° 103° (ESE) 08:49:20 435.675
AAUSAT CUBESAT 2 27 Jun 08:43:28 08:47:04 28° 97° (E) 08:50:38 437.432
Oscar 11 27 Jun 08:45:10 08:45:39 10° 92° (E) 08:46:08 145.826/435.025
CUSAT 1 27 Jun 08:45:57 08:52:45 31° 284° (WNW) 08:58:54 437.405
UWE-3 27 Jun 08:47:18 08:50:35 19° 95° (E) 08:53:54 435.000/436.395/437.385
PHONESAT 2.4 27 Jun 08:48:30 08:51:00 22° 350° (N) 08:53:30 2401.200-2431.200
FUNcube-1 27 Jun 08:49:49 08:51:15 11° 92° (E) 08:52:42 145.935
DANDE 27 Jun 08:52:32 09:00:42 58° 281° (W) 09:08:41 436.750
CANX-2 27 Jun 09:08:15 09:12:16 41° 286° (WNW) 09:16:16 2200.000
COMPASS 1 27 Jun 09:15:36 09:19:49 83° 280° (W) 09:23:57 437.405
M-CUBED/EXP-1 PRIME 27 Jun 09:15:56 09:19:36 35° 104° (ESE) 09:23:32 437.505
CINEMA 3 27 Jun 09:25:29 09:29:25 29° 288° (WNW) 09:33:30 145.822/145.860
CUTE 1.7 + AOD 2 27 Jun 09:28:53 09:32:30 27° 288° (WNW) 09:36:06 437.475
CUBEBUG 2 27 Jun 09:31:59 09:36:37 85° 279° (W) 09:41:21 437.445
ISS 27 Jun 09:32:57 09:35:37 23° 324° (NW) 09:38:18 145.825
SEEDS 27 Jun 09:35:25 09:39:11 32° 287° (WNW) 09:42:55 437.485
ANTELSAT 27 Jun 09:37:42 09:41:09 24° 70° (ENE) 09:44:39 437.575/2403.000
HUMSAT D 27 Jun 09:56:19 09:58:45 15° 94° (E) 10:01:11 437.325/437.525
ZACube-1 27 Jun 10:04:46 10:09:21 82° 281° (WNW) 10:13:55 437.345
AUBIESAT-1 27 Jun 10:12:07 10:16:00 53° 289° (WNW) 10:20:08 437.475
Oscar 11 27 Jun 10:17:47 10:22:01 52° 285° (WNW) 10:26:14 145.826/435.025
AAUSAT CUBESAT 2 27 Jun 10:19:30 10:22:19 18° 290° (WNW) 10:25:07 437.432
UWE-3 27 Jun 10:22:55 10:27:01 33° 287° (WNW) 10:31:11 435.000/436.395/437.385
FUNcube-1 27 Jun 10:23:17 10:27:42 53° 285° (WNW) 10:32:09 145.935
HO-68 27 Jun 10:24:11 10:29:19 22° 298° (WNW) 10:34:27 435.675
PHONESAT 2.4 27 Jun 10:25:50 10:28:14 20° 7° (N) 10:30:37 2401.200-2431.200
TIGRISAT 27 Jun 10:28:49 10:33:03 83° 257° (WSW) 10:37:25 435.000
UNISAT 6 27 Jun 10:33:29 10:37:43 67° 259° (W) 10:42:03 437.425
DELFI C3 27 Jun 10:41:57 10:45:53 58° 284° (WNW) 10:49:46 145.870
M-CUBED/EXP-1 PRIME 27 Jun 10:51:37 10:53:54 15° 294° (WNW) 10:56:17 437.505
ESTCUBE 1 27 Jun 11:00:38 11:02:43 13° 93° (E) 11:04:48 437.505/2401.250
JAS-2 27 Jun 11:01:28 11:05:32 16° 63° (ENE) 11:09:27 435.910
NANOSAT C BR1 27 Jun 11:04:26 11:08:14 35° 73° (ENE) 11:12:03 145.865
QB50P1 27 Jun 11:06:30 11:10:24 40° 73° (ENE) 11:14:20 145.935-145.965
POPSAT HIP 1 27 Jun 11:09:32 11:13:29 43° 74° (ENE) 11:17:27 437.405
BEESAT 3 27 Jun 11:13:23 11:15:52 16° 52° (NE) 11:18:19 437.485
ANTELSAT 27 Jun 11:14:28 11:17:46 22° 264° (W) 11:21:08 437.575/2403.000
Cosmos 2491 27 Jun 11:17:40 11:25:26 35° 76° (ENE) 11:33:08 435.465 / 435.565
QB50P2 27 Jun 11:21:15 11:25:24 67° 76° (ENE) 11:29:35 145.880/145.840
RS-15 27 Jun 11:23:40 11:34:34 59° 110° (ESE) 11:46:03 29.354- 29.394
POLYITAN 1 27 Jun 11:23:53 11:28:02 69° 76° (ENE) 11:32:13 437.675
DUCHIFAT 1 27 Jun 11:25:21 11:29:27 62° 76° (ENE) 11:33:34 145.980
HUMSAT D 27 Jun 11:30:29 11:34:27 36° 287° (WNW) 11:38:23 437.325/437.525
DX 1 27 Jun 11:35:09 11:37:32 14° 95° (E) 11:39:54 434.975-435.025
PCSat 27 Jun 11:42:48 11:48:04 50° 61° (ENE) 11:53:18 145.827
50 SAT 27 Jun 11:43:51 11:46:57 25° 97° (E) 11:50:01 437.505
BEESAT 2 27 Jun 11:48:04 11:51:07 21° 54° (NE) 11:54:08 435.950
CUBEBUG 1 27 Jun 11:59:48 12:03:56 43° 99° (E) 12:08:03 437.445
PHONESAT 2.4 27 Jun 12:02:13 12:05:14 54° 23° (NNE) 12:08:16 2401.200-2431.200
VELOX 1 27 Jun 12:04:17 12:08:29 44° 100° (E) 12:12:40 145.980
O/OREOS (USA 219) 27 Jun 12:11:23 12:14:22 17° 62° (ENE) 12:17:21 437.305
BUGSAT 1 27 Jun 12:27:07 12:31:02 49° 261° (W) 12:34:56 437.445
ESTCUBE 1 27 Jun 12:35:26 12:39:42 44° 287° (WNW) 12:43:56 437.505/2401.250
NANOSAT C BR1 27 Jun 12:41:52 12:44:03 14° 266° (W) 12:46:14 145.865
JAS-2 27 Jun 12:41:54 12:49:44 89° 253° (WSW) 12:57:01 435.910
QB50P1 27 Jun 12:44:34 12:46:19 12° 267° (W) 12:48:03 145.935-145.965
AISAT 27 Jun 12:44:54 12:49:10 54° 286° (WNW) 12:53:28 437.250
Oscar 19 27 Jun 12:45:49 12:50:23 33° 71° (ENE) 12:54:56 437.125/150
TISAT 1 27 Jun 12:47:45 12:49:30 12° 94° (E) 12:51:15 437.305
POPSAT HIP 1 27 Jun 12:48:02 12:49:26 11° 267° (W) 12:50:49 437.405
BEESAT 3 27 Jun 12:50:02 12:53:37 34° 247° (WSW) 12:57:12 437.485
UKube-1 27 Jun 12:52:05 12:56:24 79° 284° (WNW) 13:00:41 .
YUBILEINY 27 Jun 12:53:16 13:01:54 74° 93° (E) 13:10:37 435.215
Gurwin Techsat 1B 27 Jun 12:53:58 12:57:11 17° 66° (ENE) 13:00:25 435.225
SPROUT 27 Jun 12:56:08 13:00:25 80° 102° (ESE) 13:04:42 437.525
Cosmos 2504 27 Jun 12:57:46 13:03:18 21° 81° (E) 13:09:04 435.465 / 435.565
DX 1 27 Jun 13:09:49 13:13:48 37° 288° (WNW) 13:17:47 434.975-435.025
Cosmos 2491 27 Jun 13:14:15 13:22:14 42° 272° (W) 13:30:14 435.465 / 435.565
50 SAT 27 Jun 13:18:14 13:20:23 15° 290° (WNW) 13:22:31 437.505
BEESAT 2 27 Jun 13:25:34 13:28:54 26° 248° (WSW) 13:32:12 435.950
PCSat 27 Jun 13:27:35 13:30:59 17° 256° (WSW) 13:34:23 145.827
RS-15 27 Jun 13:37:06 13:47:28 38° 312° (NW) 13:58:24 29.354- 29.394
CUBEBUG 1 27 Jun 13:37:50 13:39:48 13° 293° (WNW) 13:41:45 437.445
PHONESAT 2.4 27 Jun 13:39:20 13:41:40 20° 216° (SW) 13:44:00 2401.200-2431.200
VELOX 1 27 Jun 13:42:27 13:44:31 13° 293° (WNW) 13:46:35 145.980
O/OREOS (USA 219) 27 Jun 13:49:45 13:53:49 34° 256° (WSW) 13:57:53 437.305
AIST 2 27 Jun 13:56:48 14:00:22 27° 56° (NE) 14:03:55 435.215
JUGNU 27 Jun 14:06:20 14:08:02 11° 163° (SSE) 14:09:44 437.505
SWISSCUBE 27 Jun 14:12:50 14:16:45 25° 97° (E) 14:20:38 437.505
TISAT 1 27 Jun 14:21:19 14:25:16 41° 286° (WNW) 14:29:13 437.305
Oscar 19 27 Jun 14:25:36 14:29:40 23° 264° (W) 14:33:44 437.125/150
Gurwin Techsat 1B 27 Jun 14:31:31 14:36:40 52° 260° (W) 14:41:50 435.225
JAS-2 27 Jun 14:31:39 14:35:10 14° 268° (W) 14:38:38 435.910
BEESAT 27 Jun 14:37:45 14:42:18 42° 100° (E) 14:46:49 436.000
ITUPSAT 1 27 Jun 14:37:59 14:42:32 41° 99° (E) 14:47:03 437.325
AO-7 27 Jun 14:38:05 14:45:28 37° 64° (ENE) 14:52:51 29.400- 29.500
ITAMSAT 1 27 Jun 14:44:02 14:49:12 72° 75° (ENE) 14:54:25 435.822/435.867
Cosmos 2504 27 Jun 14:47:52 14:55:43 65° 279° (W) 15:04:14 435.465 / 435.565
YUBILEINY 27 Jun 14:53:42 14:59:28 19° 291° (WNW) 15:05:17 435.215
MOZHAYETS 4 27 Jun 15:29:01 15:31:28 14° 93° (E) 15:33:54
AIST 2 27 Jun 15:35:32 15:38:39 21° 250° (WSW) 15:41:46 435.215
SO-50 27 Jun 15:44:33 15:49:25 72° 116° (ESE) 15:54:18 436.795
KKS-1 27 Jun 15:46:10 15:49:47 24° 97° (E) 15:53:23 437.445
SWISSCUBE 27 Jun 15:50:26 15:54:26 27° 290° (WNW) 15:58:25 437.505
JUGNU 27 Jun 15:52:08 15:56:23 20° 171° (S) 16:00:38 437.505
RS-15 27 Jun 16:00:32 16:05:04 12° 344° (NNW) 16:09:41 29.354- 29.394
ISS 27 Jun 16:03:24 16:06:32 44° 41° (NE) 16:09:41 145.825
HORYU 2 27 Jun 16:05:25 16:08:56 24° 70° (ENE) 16:12:28 437.375
BEESAT 27 Jun 16:16:45 16:19:42 17° 293° (WNW) 16:22:38 436.000
ITUPSAT 1 27 Jun 16:16:57 16:19:59 17° 293° (WNW) 16:23:00 437.325
STARS 27 Jun 16:21:14 16:25:05 29° 98° (E) 16:28:56 437.465
ITAMSAT 1 27 Jun 16:28:38 16:29:05 10° 268° (W) 16:29:32 435.822/435.867
AO-7 27 Jun 16:30:13 16:37:59 43° 259° (W) 16:45:50 29.400- 29.500
CUBESAT XI-V 27 Jun 16:53:55 16:55:53 12° 93° (E) 16:57:50 437.345
GONETS M04 27 Jun 16:59:26 17:03:47 15° 80° (E) 17:08:07
MOZHAYETS 4 27 Jun 17:04:24 17:08:48 43° 286° (WNW) 17:13:09
SRMSAT 27 Jun 17:05:27 17:08:44 15° 166° (SSE) 17:12:02 437.500
CUTE-I 27 Jun 17:17:39 17:21:34 21° 67° (ENE) 17:25:30 437.470
KKS-1 27 Jun 17:22:39 17:26:13 24° 290° (WNW) 17:29:46 437.445
SO-50 27 Jun 17:28:02 17:30:23 13° 312° (NW) 17:32:43 436.795
AIST 1 27 Jun 17:34:49 17:39:01 49° 278° (W) 17:43:13
BRITE-PL 27 Jun 17:34:52 17:39:43 41° 74° (ENE) 17:44:14 437.365/2234.400
Cosmos 2499 27 Jun 17:37:44 17:42:53 18° 80° (E) 17:48:12 435.465 / 435.565
JUGNU 27 Jun 17:40:11 17:44:48 23° 182° (S) 17:49:25 437.505
ISS 27 Jun 17:41:23 17:42:39 12° 234° (SW) 17:43:55 145.825
HORYU 2 27 Jun 17:41:46 17:45:20 24° 263° (W) 17:48:57 437.375
NOAA 15 27 Jun 17:47:56 17:53:09 61° 74° (ENE) 17:58:22 137.62
LilacSat-2 27 Jun 17:51:01 17:54:26 34° 74° (ENE) 17:57:52 437.200
STARS 27 Jun 17:58:04 18:01:12 20° 291° (WNW) 18:04:22 437.465
NOAA 18 27 Jun 18:07:02 18:12:28 75° 75° (ENE) 18:17:57 137.9125
GOMX 1 27 Jun 18:14:16 18:18:46 44° 75° (ENE) 18:23:01 467.674
RS-15 27 Jun 18:19:26 18:25:44 15° 24° (NNE) 18:32:02 29.354- 29.394
Cubesat XI-IV 27 Jun 18:21:09 18:26:29 90° 88° (E) 18:31:53 437.490
CUBESAT XI-V 27 Jun 18:29:02 18:33:28 47° 286° (WNW) 18:37:52 437.345
CINEMA 3 27 Jun 18:49:32 18:49:57 10° 67° (ENE) 18:50:22 145.822/145.860
GONETS M04 27 Jun 18:50:39 18:59:23 85° 275° (W) 19:08:07
SRMSAT 27 Jun 18:52:47 18:57:16 22° 176° (S) 19:01:45 437.500
CUTE-I 27 Jun 18:56:19 19:01:17 40° 261° (W) 19:06:18 437.470
HO-68 27 Jun 18:59:35 19:05:34 30° 65° (ENE) 19:11:34 435.675
BRITE-PL 27 Jun 19:14:44 19:18:13 18° 265° (W) 19:21:32 437.365/2234.400
DOVE 4 27 Jun 19:19:40 19:24:05 74° 258° (WSW) 19:28:20 437.250
STRAND 1 27 Jun 19:25:06 19:29:51 37° 99° (E) 19:34:33 437.568
Cosmos 2499 27 Jun 19:26:45 19:34:52 75° 278° (W) 19:43:36 435.465 / 435.565
LilacSat-2 27 Jun 19:27:33 19:28:49 11° 267° (W) 19:30:07 437.200
CUSAT 1 27 Jun 19:28:00 19:30:48 24° 270° (W) 19:33:12 437.405
JUGNU 27 Jun 19:29:24 19:33:13 17° 192° (SSW) 19:37:01 437.505
NOAA 15 27 Jun 19:30:58 19:33:14 13° 267° (W) 19:35:30 137.62
AAUSAT CUBESAT 2 27 Jun 19:31:33 19:32:52 11° 67° (ENE) 19:34:11 437.432
DANDE 27 Jun 19:40:47 19:45:27 77° 264° (W) 19:48:55 436.750
NOAA 18 27 Jun 19:52:38 19:53:34 10° 268° (W) 19:54:30 137.9125
GOMX 1 27 Jun 19:54:39 19:56:56 13° 265° (W) 19:59:10 467.674
CANX-2 27 Jun 19:55:53 20:00:09 76° 77° (ENE) 20:04:27 2200.000
M-CUBED/EXP-1 PRIME 27 Jun 20:00:13 20:02:24 17° 66° (ENE) 20:04:34 437.505
COMPASS 1 27 Jun 20:01:53 20:05:42 35° 73° (ENE) 20:09:33 437.405
CUTE 1.7 + AOD 2 27 Jun 20:16:06 20:20:21 70° 259° (W) 20:24:38 437.475
SEEDS 27 Jun 20:21:48 20:26:03 86° 258° (WSW) 20:30:20 437.485
PRISM 27 Jun 20:22:06 20:24:51 17° 95° (E) 20:27:36 437.425
CINEMA 3 27 Jun 20:22:36 20:26:37 49° 260° (W) 20:30:38 145.822/145.860
CUBEBUG 2 27 Jun 20:25:58 20:29:53 43° 74° (ENE) 20:33:53 437.445
RS-15 27 Jun 20:30:40 20:42:30 48° 53° (NE) 20:54:06 29.354- 29.394
SRMSAT 27 Jun 20:41:28 20:45:51 21° 186° (S) 20:50:13 437.500
HO-68 27 Jun 20:46:13 20:52:57 44° 260° (W) 20:59:45 435.675
GONETS M04 27 Jun 20:53:33 20:57:23 13° 294° (WNW) 21:01:14
AUBIESAT-1 27 Jun 20:54:49 20:58:08 90° 86° (E) 21:01:26 437.475
ZACube-1 27 Jun 20:56:17 21:00:13 42° 74° (ENE) 21:04:13 437.345
AAUSAT CUBESAT 2 27 Jun 21:03:51 21:07:53 47° 261° (W) 21:11:56 437.432
STRAND 1 27 Jun 21:04:54 21:08:44 21° 292° (WNW) 21:12:32 437.568
Oscar 11 27 Jun 21:07:37 21:11:53 66° 76° (ENE) 21:16:12 145.826/435.025
FUNcube-1 27 Jun 21:14:09 21:18:15 67° 77° (ENE) 21:22:29 145.935
AO-85 27 Jun 21:14:47 21:20:09 65° 115° (ESE) 21:25:27 145.980
UWE-3 27 Jun 21:15:04 21:19:11 67° 260° (W) 21:23:24 435.000/436.395/437.385
DELFI C3 27 Jun 21:23:13 21:26:59 40° 74° (ENE) 21:30:47 145.870
Cosmos 2499 27 Jun 21:27:10 21:29:33 11° 297° (WNW) 21:31:58 435.465 / 435.565
M-CUBED/EXP-1 PRIME 27 Jun 21:34:37 21:36:52 17° 259° (WSW) 21:39:05 437.505
COMPASS 1 27 Jun 21:39:00 21:41:19 14° 266° (W) 21:43:40 437.405
PRISM 27 Jun 21:56:41 22:00:08 27° 289° (WNW) 22:03:33 437.425
CUBEBUG 2 27 Jun 22:05:35 22:06:44 11° 268° (W) 22:07:52 437.445
HUMSAT D 27 Jun 22:16:40 22:20:47 84° 78° (ENE) 22:25:01 437.325/437.525
TIGRISAT 27 Jun 22:24:46 22:28:50 29° 97° (E) 22:32:56 435.000
UNISAT 6 27 Jun 22:29:26 22:33:43 36° 98° (E) 22:38:02 437.425
SRMSAT 27 Jun 22:31:36 22:34:21 13° 195° (SSW) 22:37:06 437.500
ZACube-1 27 Jun 22:35:11 22:36:41 12° 268° (W) 22:38:12 437.345
RS-15 27 Jun 22:43:25 22:54:55 48° 252° (WSW) 23:06:13 29.354- 29.394
CUBEBUG 1 27 Jun 22:52:02 22:55:20 21° 70° (ENE) 22:58:38 437.445
AO-85 27 Jun 22:57:36 23:01:03 17° 310° (NW) 23:04:27 145.980
VELOX 1 27 Jun 22:57:45 23:01:14 23° 70° (ENE) 23:04:42 145.980
DELFI C3 27 Jun 23:00:43 23:01:59 11° 267° (W) 23:03:16 145.870
ANTELSAT 27 Jun 23:08:58 23:13:39 79° 283° (WNW) 23:18:21 437.575/2403.000
YUBILEINY 27 Jun 23:09:44 23:17:10 29° 74° (ENE) 23:24:34 435.215
QB50P2 27 Jun 23:11:51 23:14:25 16° 94° (E) 23:16:59 145.880/145.840
POLYITAN 1 27 Jun 23:14:24 23:17:03 16° 94° (E) 23:19:42 437.675
DUCHIFAT 1 27 Jun 23:15:22 23:17:36 14° 94° (E) 23:19:49 145.980
ESTCUBE 1 27 Jun 23:29:54 23:34:26 85° 258° (WSW) 23:38:59 437.505/2401.250
AISAT 27 Jun 23:37:26 23:41:49 75° 77° (ENE) 23:46:13 437.250
UKube-1 27 Jun 23:42:04 23:46:11 47° 74° (ENE) 23:50:20 .
SPROUT 27 Jun 23:45:29 23:49:15 32° 73° (ENE) 23:53:03 437.525
50 SAT 27 Jun 23:50:02 23:53:42 65° 259° (W) 23:57:24 437.505
DX 1 28 Jun 00:00:16 00:04:37 79° 257° (WSW) 00:08:58 434.975-435.025
JAS-2 28 Jun 00:01:36 00:02:35 10° 90° (E) 00:03:34 435.910
TIGRISAT 28 Jun 00:01:44 00:05:18 22° 290° (WNW) 00:08:53 435.000
UNISAT 6 28 Jun 00:06:56 00:10:07 19° 291° (WNW) 00:13:20 437.425
Cosmos 2491 28 Jun 00:12:50 00:21:04 47° 89° (E) 00:29:16 435.465 / 435.565
BUGSAT 1 28 Jun 00:13:16 00:16:54 30° 98° (E) 00:20:32 437.445
SO-50 28 Jun 00:21:19 00:24:44 20° 51° (NE) 00:28:03 436.795
CUBEBUG 1 28 Jun 00:27:47 00:31:26 26° 263° (W) 00:35:05 437.445
NANOSAT C BR1 28 Jun 00:28:16 00:32:28 63° 284° (WNW) 00:36:40 145.865
QB50P1 28 Jun 00:30:52 00:35:02 55° 285° (WNW) 00:39:11 145.935-145.965
VELOX 1 28 Jun 00:33:56 00:37:33 24° 263° (W) 00:41:10 145.980
POPSAT HIP 1 28 Jun 00:34:02 00:38:10 51° 285° (WNW) 00:42:18 437.405
PCSat 28 Jun 00:40:42 00:42:19 11° 102° (ESE) 00:43:57 145.827
Cosmos 2504 28 Jun 00:46:08 00:54:16 39° 76° (ENE) 01:02:02 435.465 / 435.565
QB50P2 28 Jun 00:46:25 00:50:15 33° 287° (WNW) 00:54:06 145.880/145.840
POLYITAN 1 28 Jun 00:49:03 00:52:53 33° 287° (WNW) 00:56:43 437.675
DUCHIFAT 1 28 Jun 00:49:28 00:53:22 37° 287° (WNW) 00:57:16 145.980
Oscar 19 28 Jun 01:02:47 01:05:55 16° 94° (E) 01:09:02 437.125/150
YUBILEINY 28 Jun 01:05:45 01:14:10 51° 270° (W) 01:22:35 435.215
TISAT 1 28 Jun 01:08:03 01:12:12 78° 76° (ENE) 01:16:21 437.305
SWISSCUBE 28 Jun 01:15:40 01:18:54 18° 67° (ENE) 01:22:08 437.505
UKube-1 28 Jun 01:21:05 01:22:25 11° 267° (W) 01:23:45 .
SPROUT 28 Jun 01:22:39 01:25:14 16° 266° (W) 01:27:50 437.525
BEESAT 28 Jun 01:40:00 01:44:08 30° 71° (ENE) 01:48:16 436.000
ITUPSAT 1 28 Jun 01:40:34 01:44:43 30° 70° (ENE) 01:48:51 437.325
JAS-2 28 Jun 01:42:48 01:48:17 65° 286° (WNW) 01:53:25 435.910
BUGSAT 1 28 Jun 01:49:22 01:52:00 17° 291° (WNW) 01:54:39 437.445
SO-50 28 Jun 02:01:05 02:05:18 36° 247° (WSW) 02:09:23 436.795
Cosmos 2491 28 Jun 02:10:26 02:17:59 32° 285° (WNW) 02:25:33 435.465 / 435.565
O/OREOS (USA 219) 28 Jun 02:18:06 02:22:22 43° 105° (ESE) 02:26:38 437.305
PCSat 28 Jun 02:19:37 02:25:00 72° 296° (WNW) 02:30:26 145.827
BEESAT 3 28 Jun 02:35:55 02:39:49 72° 300° (WNW) 02:43:44 437.485
Cosmos 2504 28 Jun 02:39:33 02:47:30 39° 273° (W) 02:55:07 435.465 / 435.565
Oscar 19 28 Jun 02:40:32 02:45:24 46° 287° (WNW) 02:50:17 437.125/150
KKS-1 28 Jun 02:41:23 02:43:33 14° 67° (ENE) 02:45:43 437.445
AO-7 28 Jun 02:47:23 02:50:54 13° 92° (E) 02:54:23 29.400- 29.500
SWISSCUBE 28 Jun 02:51:55 02:56:22 38° 261° (W) 03:00:49 437.505
Gurwin Techsat 1B 28 Jun 02:52:02 02:57:23 89° 281° (W) 03:02:42 435.225
ITAMSAT 1 28 Jun 03:01:41 03:06:30 36° 99° (E) 03:11:16 435.822/435.867
BEESAT 2 28 Jun 03:12:38 03:16:27 50° 300° (WNW) 03:20:20 435.950
STARS 28 Jun 03:14:45 03:17:20 16° 68° (ENE) 03:19:55 437.465
BEESAT 28 Jun 03:18:09 03:21:51 22° 264° (W) 03:25:35 436.000
ITUPSAT 1 28 Jun 03:18:44 03:22:29 23° 264° (W) 03:26:15 437.325
